Theta_e
332 343 345 344 342 343 346 345 346 348 348 347 346 346 344 342 341 339 338 336 336 335 335 335 335 335 335 334 334 333 334 333 333 332 333 333 333 333 332 332 331 329 332
336 343 344 344 342 343 345 346 346 346 347 347 346 345 343 342 341 339 337 336 335 334 334 334 334 334 333 332 332 333 334 332 332 332 331 329 331 332 331 332 331 331 330
336 342 342 344 344 343 345 345 346 346 347 346 346 345 344 342 340 339 338 336 336 335 334 333 331 330 330 330 331 332 333 332 330 327 327 329 328 333 331 330 330 330 329
337 340 338 341 344 343 345 346 345 344 343 343 342 343 343 342 341 340 339 336 336 336 335 334 333 332 331 332 332 333 333 332 328 327 327 327 328 328 334 331 330 329 328
338 337 335 341 344 342 345 344 343 342 341 340 339 338 337 335 335 337 336 339 336 335 335 335 333 332 332 332 333 332 332 331 328 325 323 326 326 325 331 334 333 331 329
338 337 341 342 343 342 343 343 341 338 337 336 336 336 335 334 333 332 332 333 335 338 337 335 334 333 333 333 333 330 330 329 328 326 326 325 325 326 330 332 333 334 333
338 338 343 342 343 344 344 341 338 338 337 335 335 334 334 333 332 332 331 331 331 331 332 334 335 334 332 331 331 330 330 329 329 329 329 330 331 330 332 332 333 334 335
338 337 341 336 339 341 341 341 340 338 336 335 334 333 332 332 332 332 332 332 332 332 332 332 331 331 332 332 333 333 332 330 329 331 330 330 330 331 335 334 335 336 336
340 340 339 339 336 334 337 338 340 340 338 336 335 334 334 333 332 332 332 332 333 333 334 334 334 334 334 334 334 333 331 329 331 332 331 331 330 333 337 337 336 337 337
336 339 340 341 337 337 340 333 335 338 337 336 335 333 331 332 332 331 331 331 333 334 334 334 334 335 335 335 334 332 329 328 333 333 332 333 330 334 337 337 337 337 337
332 334 336 338 339 336 339 335 332 330 334 333 333 330 331 337 336 334 329 330 332 333 334 334 334 334 333 331 331 329 326 334 334 334 333 332 331 335 337 337 337 337 337
328 331 334 337 337 336 336 339 340 339 341 341 340 339 338 337 336 332 326 324 327 328 330 332 332 330 328 334 334 330 335 335 335 335 334 330 332 336 338 338 337 336 337
331 330 331 336 337 337 338 339 338 335 335 336 336 339 338 336 337 336 335 334 335 324 334 334 334 334 334 335 334 335 335 336 335 335 332 329 331 334 336 337 337 337 337
328 330 334 335 336 336 336 335 336 337 336 336 338 337 336 335 336 336 334 335 336 336 335 336 336 335 335 335 335 335 335 335 334 334 332 324 328 332 334 335 336 336 336
328 329 331 333 332 332 332 332 332 332 334 336 336 336 335 335 336 336 336 336 337 337 336 336 336 335 336 336 336 335 334 334 333 333 332 322 325 329 330 332 334 335 334
329 329 329 330 331 331 331 332 334 337 337 338 339 339 336 336 337 336 337 337 337 336 333 334 334 333 335 335 334 335 334 334 333 330 326 324 322 325 327 329 331 332 334
332 332 330 330 332 333 334 336 337 338 338 340 339 339 338 337 337 337 337 337 336 336 336 336 333 335 332 334 333 333 331 328 325 322 323 326 327 323 324 326 327 328 329
333 332 332 333 335 336 337 338 339 340 340 340 339 339 337 337 337 337 337 336 336 336 335 333 332 330 329 326 324 323 322 322 321 322 324 324 326 326 325 323 321 322 323
334 334 334 336 336 337 338 338 338 338 338 337 336 333 331 330 331 335 334 330 330 329 326 325 324 323 321 320 319 319 320 320 322 323 321 323 323 324 323 321 318 317 318
335 336 336 336 336 335 336 336 336 335 328 327 326 325 324 324 325 326 324 322 323 322 321 320 320 320 319 317 316 317 317 320 321 325 320 319 320 321 321 320 322 319 316
331 332 333 333 331 334 333 333 333 329 322 321 321 321 321 321 320 320 320 319 319 317 317 316 316 315 315 316 314 312 315 317 321 321 314 320 316 319 317 318 318 316 314
322 323 323 321 322 327 330 331 328 324 319 318 317 315 315 316 317 316 316 315 314 313 312 312 313 312 313 315 309 311 307 309 315 310 315 314 315 313 314 313 311 311 312
316 317 315 315 316 319 321 321 320 317 316 313 312 308 307 307 308 309 308 308 308 309 307 308 308 308 307 310 309 310 303 300 303 307 308 313 310 310 307 307 307 308 308
309 310 310 311 312 313 317 319 318 316 311 308 307 305 304 304 303 304 304 304 305 305 304 304 304 305 305 303 306 306 306 305 299 298 306 305 307 303 303 304 305 304 305
307 307 307 308 307 309 312 313 311 308 306 305 305 303 302 301 300 300 301 301 301 301 301 301 301 301 301 301 300 300 300 301 303 297 294 297 300 301 301 301 302 303 305
305 305 305 304 302 304 304 305 305 303 302 301 302 300 299 299 298 297 298 298 298 298 297 298 298 298 297 298 298 297 297 295 295 294 293 294 294 297 299 300 300 302 304
Wind_Speed
11 14 13 15 14 13 11 10 10 12 13 13 13 15 14 14 14 13 13 12 12 12 12 11 11 12 11 11 10 10 10 10 8 7 9 10 10 10 9 8 8 8 7
15 15 11 13 14 13 12 12 12 11 14 15 14 14 13 13 13 12 12 11 11 11 11 11 11 10 9 9 9 9 10 11 10 9 7 3 6 9 8 8 8 8 8
15 14 14 11 13 13 12 12 13 13 14 13 12 13 13 11 11 11 10 9 9 10 10 10 9 8 8 8 8 9 10 10 10 8 5 6 6 8 8 6 6 6 6
14 12 12 10 12 13 11 11 12 12 12 12 12 11 11 10 10 10 8 7 8 8 8 8 8 8 8 8 8 9 10 10 9 9 5 6 6 5 9 6 6 7 7
14 12 12 10 12 13 11 12 12 11 10 10 10 9 9 8 8 8 6 7 6 5 6 6 7 6 6 7 8 9 9 9 8 7 7 6 7 7 9 10 8 6 5
14 13 12 12 12 13 11 11 10 9 9 8 8 8 7 7 7 6 6 5 6 9 6 4 3 4 5 7 8 9 9 9 11 7 6 5 6 8 10 10 11 10 7
14 12 13 11 11 11 12 11 10 8 8 7 7 6 6 6 6 6 5 5 5 5 5 6 5 6 7 8 9 9 9 9 9 7 7 7 6 9 11 11 11 11 12
14 13 13 9 9 9 9 9 9 8 7 7 7 6 6 5 4 4 4 4 4 4 5 5 5 5 6 6 6 6 6 6 8 7 7 7 5 10 11 11 12 13 13
11 12 12 11 10 6 7 7 6 6 6 6 6 5 5 4 4 3 4 4 3 3 4 4 5 6 7 7 7 7 8 8 10 6 7 5 5 11 12 13 13 15 15
10 10 9 10 10 9 8 5 4 4 4 4 4 4 3 2 2 2 2 2 6 6 7 7 6 7 8 9 9 8 9 11 7 7 6 5 9 13 13 14 15 16 16
8 9 9 8 7 7 7 6 4 1 2 3 4 2 3 2 2 2 4 4 6 6 7 8 8 8 8 11 7 7 9 5 7 6 5 4 10 14 15 15 16 17 17
11 10 8 8 8 7 5 6 4 2 3 2 2 2 2 3 3 5 5 5 7 5 7 7 7 8 8 5 5 5 5 7 6 7 6 6 13 15 17 17 17 17 18
13 9 9 10 9 8 6 5 3 2 2 2 3 4 3 3 3 3 3 2 3 1 4 4 4 4 6 6 6 6 7 8 6 6 8 5 13 16 17 18 19 20 19
13 12 11 10 8 7 4 4 4 4 4 3 4 4 3 3 3 3 3 3 3 3 5 4 4 5 6 7 7 8 8 7 7 7 8 6 9 16 18 18 19 19 19
12 12 11 10 8 6 6 4 4 3 3 2 3 3 3 3 3 3 4 4 4 4 4 4 5 5 7 8 8 9 9 10 10 7 7 7 7 12 17 18 17 18 18
10 11 9 9 8 7 6 6 4 3 3 2 1 2 3 4 4 4 4 4 4 4 4 5 6 6 7 8 9 9 10 10 10 11 8 9 5 6 12 14 14 15 16
9 9 9 9 8 8 7 5 4 3 2 1 1 2 3 4 5 5 5 5 5 5 6 5 5 4 5 5 8 8 9 11 10 10 8 7 7 4 5 9 11 12 13
8 9 9 7 8 8 6 5 3 2 1 1 2 2 4 4 5 5 4 4 5 4 4 4 5 5 5 7 8 8 8 9 9 7 5 6 6 6 3 7 9 10 11
9 8 8 9 8 7 6 4 3 2 1 3 3 4 6 6 5 3 4 4 5 4 5 6 6 6 6 6 8 8 7 7 5 3 7 7 7 6 6 7 3 6 10
8 7 7 7 7 6 4 3 3 4 5 5 6 6 7 6 7 5 5 7 6 5 6 7 7 6 5 8 8 8 7 5 4 2 6 6 6 6 8 9 7 7 7
6 8 8 7 6 6 5 4 4 5 5 6 6 8 8 8 8 8 6 7 6 6 7 8 6 6 5 8 7 8 5 6 3 5 11 5 10 6 10 9 8 8 9
7 6 6 6 5 4 4 4 4 6 6 7 6 8 9 10 10 8 7 7 8 5 8 8 9 6 4 6 6 6 6 6 1 12 6 7 8 9 9 10 13 12 11
7 7 7 6 6 5 7 7 8 9 6 5 5 6 8 10 10 9 9 7 7 7 6 8 9 9 6 6 9 4 5 4 11 6 12 6 12 8 12 12 13 12 13
6 6 7 7 7 5 5 6 7 5 6 4 6 6 7 10 10 9 9 9 8 6 8 7 7 7 7 7 4 6 5 7 6 8 5 13 9 14 13 10 12 13 12
7 7 7 9 10 9 9 8 7 9 8 6 5 7 8 9 11 10 10 9 9 7 8 8 8 8 5 5 5 6 7 6 4 7 11 9 10 11 10 11 10 9 10
9 9 8 10 11 11 12 12 11 11 9 6 6 6 5 6 6 9 9 8 9 8 8 7 7 8 7 6 6 6 6 5 8 7 11 14 15 7 10 6 9 7 8
Wind_Direction
157 139 138 136 137 134 116 98 129 134 131 127 122 113 104 97 90 85 81 78 76 76 77 78 75 72 68 61 53 49 42 30 25 31 38 37 29 39 39 33 359 39 25
149 145 143 143 141 135 119 103 106 132 124 119 123 112 107 100 93 88 85 82 82 81 80 79 78 74 67 58 48 40 35 31 33 32 17 70 46 26 33 26 12 22 13
149 138 150 145 141 135 125 114 106 108 114 117 119 116 113 108 103 95 91 85 77 81 81 81 81 79 69 55 42 31 25 26 23 10 330 10 18 8 18 19 3 356 349
146 148 148 148 142 139 133 120 109 105 103 101 98 95 95 93 92 88 89 101 83 82 84 79 75 66 55 44 30 21 16 16 9 339 351 3 348 24 344 352 346 338 336
146 144 132 143 144 145 134 121 115 109 106 104 103 99 95 91 90 86 76 56 71 84 86 72 67 59 44 27 14 9 8 5 350 307 349 346 332 8 326 322 313 307 313
147 145 140 143 152 148 139 128 118 115 112 109 106 103 100 98 97 89 77 69 59 43 64 43 60 35 21 8 2 1 3 358 314 346 338 343 319 346 320 316 312 311 280
147 144 145 146 149 152 139 134 131 126 120 116 111 108 110 109 102 91 90 82 65 46 33 31 19 4 0 357 355 358 356 346 331 333 329 328 329 325 316 311 312 306 299
150 151 143 136 135 141 143 142 140 134 129 126 122 115 107 105 95 91 65 46 37 27 19 12 5 352 340 341 340 337 329 321 304 316 321 315 342 311 313 309 307 303 296
160 157 157 159 155 146 142 144 141 134 128 126 122 109 97 88 77 59 35 12 2 349 344 343 338 331 323 320 317 315 316 312 303 317 313 307 11 307 307 303 300 300 298
167 160 165 165 168 166 158 152 144 127 119 121 122 119 103 112 72 91 289 61 337 336 335 329 322 315 313 315 311 305 304 283 295 306 299 310 304 300 302 303 300 296 295
172 175 174 169 180 173 168 132 150 121 174 158 164 128 213 289 316 306 46 330 314 301 298 306 307 307 305 271 261 286 290 313 317 309 303 319 290 299 301 299 298 297 297
178 187 185 180 190 179 174 162 172 192 252 223 240 281 297 313 324 312 287 288 289 300 289 298 305 299 266 319 316 246 312 316 303 303 300 306 290 297 299 297 293 292 294
181 185 191 195 187 191 185 178 171 195 208 224 254 267 278 281 285 286 300 297 319 200 312 311 311 316 323 313 314 310 310 307 308 305 303 270 290 299 304 302 303 299 293
183 189 187 196 192 197 197 197 188 188 188 211 220 256 268 271 277 287 302 316 302 319 318 316 314 312 301 294 290 293 298 304 310 307 305 262 285 302 306 303 305 309 313
185 183 188 190 197 192 199 195 190 203 209 218 232 253 270 285 298 312 310 303 308 308 306 307 304 303 299 295 296 297 300 300 304 308 311 305 268 298 311 312 312 315 318
185 184 184 191 197 186 201 194 196 189 200 236 264 303 293 296 306 311 305 302 300 322 310 296 302 300 299 310 300 306 305 306 312 316 320 315 314 305 321 324 325 325 328
189 181 186 189 193 198 196 202 207 197 229 260 304 318 315 302 305 300 301 307 323 296 296 308 305 312 301 312 301 302 313 315 316 324 328 331 334 340 350 348 343 344 346
180 186 186 185 197 200 202 195 200 198 224 325 339 334 346 328 311 302 312 321 335 326 332 324 346 337 333 326 320 320 317 315 320 326 349 348 346 341 357 35 349 345 348
183 183 189 196 196 202 209 213 192 150 84 58 47 35 32 35 16 14 24 19 3 6 3 352 353 353 339 338 319 315 315 314 324 326 356 354 355 343 347 350 331 301 335
184 183 181 188 187 185 179 170 135 105 78 66 56 52 44 44 36 40 43 32 20 20 12 4 4 4 355 345 320 313 314 313 321 305 334 328 340 340 341 337 337 340 332
170 178 179 176 177 173 167 166 161 120 103 84 69 57 54 43 44 41 44 35 31 34 25 16 357 356 359 350 330 334 320 312 299 332 331 323 336 340 334 332 334 330 325
142 145 146 139 144 162 156 137 119 122 91 88 82 66 53 53 45 47 43 40 31 31 28 19 12 353 357 12 343 302 329 325 70 327 322 322 322 333 334 333 326 328 329
132 130 125 114 108 105 119 118 111 112 118 103 78 68 51 54 52 45 46 43 40 37 29 20 11 14 352 357 351 337 332 324 326 313 321 323 328 328 331 330 329 326 325
101 99 101 101 97 96 143 143 146 135 126 97 94 84 72 55 52 46 47 43 39 37 34 21 16 11 -0 356 341 7 333 314 321 319 331 315 322 327 322 324 326 325 326
102 91 92 93 84 80 85 99 108 102 101 105 100 92 78 67 51 41 38 39 39 35 28 26 22 19 19 357 354 344 328 315 307 307 302 314 310 313 316 330 311 316 329
104 95 86 86 80 81 82 77 86 95 96 97 98 87 74 69 55 40 39 38 35 29 24 22 20 28 15 14 4 2 351 340 335 320 309 316 313 312 321 311 318 328 339